Wind_Speed
27 28 29 27 26 26 25 25 25 24 24 23 24 24 23 23 24 26 25 27 28 29 29 27 26 26 25 25 24 22 21 19 18 18 17 17 17 18 18 17 17 16 16
28 28 28 27 26 24 23 23 23 22 22 21 21 21 21 21 22 23 22 24 25 28 30 29 28 29 29 28 27 27 25 24 22 21 21 20 20 20 20 20 19 18 18
28 28 27 26 25 24 23 22 21 21 20 19 19 18 18 18 17 18 20 21 22 23 25 27 28 27 29 30 29 29 28 28 27 25 24 23 22 22 22 22 21 20 20
28 27 26 25 24 22 21 21 20 20 19 18 18 17 16 15 16 16 17 18 19 21 23 24 26 27 27 29 30 31 30 30 30 28 28 27 25 25 25 24 23 22 22
29 27 26 25 23 22 21 20 19 19 18 17 16 16 16 15 15 15 15 16 17 18 20 22 23 25 26 27 28 30 31 31 32 31 30 29 29 28 27 27 26 25 24
29 27 25 24 23 21 21 20 19 19 18 16 15 15 15 15 15 14 14 15 16 17 18 20 21 22 24 26 27 29 30 31 32 33 32 31 31 30 29 29 28 27 26
29 28 27 24 23 22 21 20 20 19 18 17 16 15 15 15 15 15 15 15 15 16 17 18 20 21 23 25 27 28 30 31 32 32 33 33 32 32 32 31 30 29 28
29 28 26 24 23 23 22 21 21 20 20 18 17 17 17 16 16 16 16 15 15 16 16 17 19 21 22 24 26 27 28 30 31 32 33 34 34 34 33 33 32 31 30
28 27 26 24 24 24 23 23 22 22 21 20 19 18 18 18 18 17 17 16 16 16 17 17 18 19 21 22 24 26 27 29 31 32 32 33 35 36 36 35 34 33 32
29 28 27 27 26 26 26 25 25 24 24 23 22 21 20 19 19 19 18 18 17 17 17 18 18 19 20 21 23 25 27 28 30 31 32 33 34 36 37 37 36 35 34
32 31 29 29 29 29 29 28 28 28 27 26 25 25 23 22 21 20 20 20 19 18 18 18 18 19 20 21 22 24 27 28 29 31 32 33 34 35 37 38 37 36 35
35 34 33 33 33 33 33 31 31 31 30 29 29 28 27 26 25 23 22 22 21 21 20 19 19 19 20 21 23 23 25 28 29 30 32 33 34 36 36 37 38 37 36
40 39 38 37 37 36 37 36 35 34 33 33 32 31 30 29 28 26 25 24 23 23 22 21 20 20 21 22 22 24 25 27 28 31 32 33 35 36 36 37 38 38 37
44 44 43 42 42 41 40 39 38 38 37 36 35 34 33 31 31 29 28 26 24 24 24 23 22 22 22 22 23 23 25 25 27 29 30 31 33 35 36 36 38 38 37
49 48 48 47 46 45 44 43 42 41 40 39 37 36 35 34 33 32 31 29 27 25 24 25 24 24 24 23 23 24 25 25 27 28 29 30 32 35 36 37 37 37 37
54 54 53 52 51 49 48 47 46 44 43 41 40 39 37 36 35 34 33 31 30 27 25 26 26 26 25 24 24 24 25 26 27 28 29 30 30 32 35 37 37 37 37
58 58 57 56 55 53 52 51 49 48 47 45 43 41 39 38 37 36 35 33 32 30 27 26 27 27 27 26 25 25 26 26 26 28 28 30 30 30 32 35 35 36 35
62 61 61 60 59 58 56 55 53 51 50 48 46 44 42 40 39 37 36 35 34 32 30 28 28 27 27 27 26 26 26 26 27 28 29 30 30 29 31 34 35 34 34
63 63 62 62 62 61 60 59 57 55 53 51 49 47 45 43 41 40 38 36 35 33 32 30 28 27 27 27 26 26 26 26 26 27 28 29 30 30 31 31 32 32 32
61 61 61 61 62 62 61 61 60 59 57 54 52 50 47 45 43 42 40 38 36 34 33 31 30 28 27 27 27 26 26 26 26 27 27 28 28 28 30 30 31 31 32
57 59 60 61 62 62 62 61 61 60 59 57 55 52 50 47 45 43 41 40 38 35 33 32 30 29 28 28 27 27 26 26 25 26 26 26 27 28 29 30 31 31 32
48 51 53 55 57 59 61 61 61 60 59 58 56 55 52 49 46 44 42 40 38 36 34 33 31 29 28 28 27 26 26 25 25 25 26 26 26 27 28 29 29 30 30
39 39 41 42 44 47 51 54 57 58 58 57 55 55 53 51 49 46 43 41 39 36 35 33 31 29 28 27 26 25 25 25 25 25 26 27 27 27 27 28 28 28 28
34 34 33 33 34 36 39 43 47 50 52 53 53 52 53 52 50 47 45 42 40 37 35 33 31 29 28 27 25 24 24 23 24 25 25 26 27 27 28 28 27 27 28
32 30 29 30 30 31 32 35 38 41 44 47 49 50 50 50 49 47 45 43 40 37 35 32 31 29 27 26 24 24 24 23 23 24 25 26 26 27 27 28 28 28 28
31 29 27 27 27 27 28 29 32 34 38 41 43 45 47 49 48 47 45 43 40 38 35 32 30 28 27 25 24 24 23 23 23 23 23 23 24 25 25 25 25 26 26
Wind_Direction
289 291 289 287 285 284 282 281 281 280 280 281 281 279 277 274 273 270 265 259 256 254 251 248 246 246 247 246 244 243 243 242 241 240 241 240 239 239 239 239 239 240 241
288 287 289 287 286 285 284 281 279 278 278 279 280 279 277 277 273 270 266 261 258 253 250 248 248 246 247 245 243 242 242 242 242 243 242 241 239 238 238 238 239 239 241
290 289 289 288 286 284 282 280 278 277 276 277 277 279 280 279 275 270 265 259 256 256 252 247 250 249 249 246 245 242 241 241 242 242 242 242 240 238 238 238 239 239 240
291 291 289 287 285 283 281 278 277 277 276 275 275 277 280 279 276 273 269 264 261 258 257 254 253 252 253 250 247 244 241 241 241 240 241 241 240 240 238 238 238 239 240
291 290 288 285 283 282 280 278 277 276 276 275 275 276 278 279 279 276 272 269 266 263 260 256 255 254 253 250 248 245 241 241 241 241 240 240 240 238 237 237 237 239 240
290 290 287 285 282 281 279 276 275 275 274 274 275 277 277 278 278 278 277 276 273 267 262 259 258 256 252 250 247 243 240 241 240 240 240 240 238 236 235 236 237 238 239
290 288 286 282 279 278 276 273 272 272 271 269 271 274 276 276 277 276 277 277 276 273 268 262 259 258 256 251 246 244 243 242 241 241 240 238 237 236 235 236 237 237 238
290 287 282 278 276 275 272 270 269 268 268 267 268 271 273 275 277 278 277 277 277 276 275 269 266 261 257 252 247 244 243 243 241 241 239 237 237 236 236 235 236 236 237
290 286 281 278 276 275 272 269 267 266 266 266 267 269 270 273 277 277 278 278 277 277 277 276 271 265 260 255 252 247 246 244 242 242 239 237 237 236 235 235 235 235 237
287 283 281 280 278 275 273 270 267 265 265 265 267 268 269 269 272 275 277 277 277 276 277 277 276 269 265 262 257 252 248 246 243 243 241 239 238 237 236 235 235 235 236
282 280 277 277 277 275 273 270 269 266 264 264 267 269 269 269 268 269 272 275 276 276 277 277 277 274 270 265 261 258 253 250 246 244 243 242 240 238 236 235 234 235 236
278 277 275 274 273 273 272 270 269 267 265 264 265 267 268 268 268 267 268 270 275 277 277 277 277 275 272 266 262 260 257 254 250 246 244 243 241 239 237 235 234 234 236
276 274 273 272 271 270 268 268 268 266 266 265 265 266 266 267 267 267 267 266 269 273 276 276 276 276 274 270 264 261 259 258 253 248 247 245 241 239 236 235 234 234 236
274 272 272 271 269 269 268 266 266 265 265 265 265 265 265 265 265 266 266 265 265 268 272 273 276 275 274 272 268 264 260 259 255 252 250 246 242 237 235 234 234 234 235
273 271 270 269 268 267 266 265 264 264 263 263 263 264 264 263 264 264 264 263 263 264 268 271 273 275 273 271 269 266 261 260 256 253 250 248 243 236 233 233 235 233 234
272 271 269 268 267 265 264 263 262 261 261 261 261 261 262 262 262 262 263 262 262 263 264 268 272 274 273 270 268 266 263 261 258 253 250 247 243 236 232 232 232 233 234
271 270 268 267 266 264 263 262 261 259 258 258 259 259 260 260 260 260 261 261 261 262 262 265 269 272 270 268 267 265 263 260 258 253 250 247 243 237 232 229 230 232 235
269 268 267 266 265 263 262 261 260 258 256 256 256 257 258 258 257 257 258 259 260 261 262 264 267 269 267 266 266 265 263 261 258 252 248 247 243 239 234 230 229 231 234
268 267 265 264 263 262 261 259 258 257 255 254 254 255 255 255 254 255 255 256 258 259 260 262 264 266 265 264 265 264 263 261 258 252 247 243 241 238 235 233 231 233 235
267 266 264 263 262 260 259 258 257 255 254 253 253 253 253 253 252 252 253 254 256 257 258 260 261 263 263 264 264 263 262 258 256 252 246 241 239 237 236 235 233 234 235
268 265 264 263 262 260 258 256 255 254 253 251 250 250 250 250 250 249 250 251 253 254 256 258 259 261 262 262 263 261 260 256 254 249 241 239 239 238 236 236 235 234 233
271 268 266 264 262 260 257 255 253 252 251 249 248 247 247 247 247 247 247 248 250 251 253 255 257 260 260 260 261 259 257 253 250 246 241 237 236 235 233 233 234 233 233
272 271 269 266 263 260 257 254 251 249 248 246 245 244 243 243 243 243 243 244 246 249 250 253 255 257 258 259 259 257 254 249 245 243 240 237 235 234 234 234 234 232 232
271 270 270 269 266 263 259 255 251 248 245 243 241 240 240 239 239 239 240 242 244 245 248 251 252 252 255 256 255 253 250 247 243 240 238 236 235 236 234 236 237 236 237
268 268 268 268 267 265 263 258 253 248 243 239 237 236 235 235 235 235 236 238 240 242 245 247 247 249 251 250 250 248 247 245 241 240 239 236 235 236 235 235 235 235 235
263 264 266 268 267 266 264 262 255 248 241 235 232 231 231 231 230 231 232 234 236 238 241 242 244 246 245 245 245 244 242 239 239 238 236 236 235 234 234 231 230 233 232
Height
5865 5863 5861 5861 5859 5858 5858 5857 5856 5855 5854 5853 5852 5852 5851 5851 5850 5850 5851 5851 5853 5854 5855 5856 5858 5860 5862 5864 5866 5867 5869 5870 5872 5874 5876 5878 5879 5881 5883 5885 5887 5888 5890
5860 5858 5856 5854 5853 5852 5851 5850 5850 5849 5848 5847 5847 5846 5845 5844 5844 5844 5844 5844 5845 5846 5847 5848 5850 5853 5855 5857 5859 5861 5863 5865 5867 5869 5871 5873 5875 5877 5879 5881 5883 5885 5886
5853 5851 5850 5848 5847 5846 5845 5844 5843 5843 5842 5842 5842 5841 5840 5839 5838 5838 5838 5838 5839 5840 5840 5842 5843 5845 5847 5850 5852 5854 5857 5859 5861 5864 5866 5868 5870 5872 5874 5877 5879 5881 5883
5846 5844 5843 5842 5841 5839 5838 5838 5837 5837 5837 5837 5836 5836 5835 5834 5833 5833 5833 5833 5833 5834 5834 5835 5837 5838 5840 5842 5844 5846 5849 5852 5855 5857 5860 5862 5865 5867 5869 5872 5874 5876 5878
5838 5837 5836 5835 5834 5834 5833 5832 5832 5832 5832 5831 5831 5830 5830 5829 5828 5828 5827 5828 5828 5828 5828 5829 5830 5831 5833 5834 5836 5839 5842 5845 5848 5850 5853 5855 5858 5861 5863 5866 5869 5871 5874
5831 5830 5828 5828 5828 5828 5827 5827 5826 5826 5826 5826 5826 5826 5825 5824 5823 5823 5823 5823 5822 5822 5823 5823 5824 5825 5826 5828 5829 5831 5834 5836 5840 5843 5846 5848 5851 5854 5857 5860 5863 5866 5868
5825 5823 5823 5822 5822 5822 5822 5821 5821 5821 5821 5821 5822 5821 5821 5820 5819 5819 5819 5818 5818 5817 5817 5818 5818 5819 5819 5821 5823 5824 5827 5829 5832 5835 5838 5841 5844 5847 5850 5854 5857 5860 5863
5818 5817 5816 5816 5816 5816 5816 5815 5815 5816 5816 5816 5817 5817 5816 5816 5815 5814 5814 5813 5813 5812 5812 5812 5812 5813 5813 5814 5816 5818 5820 5822 5824 5827 5830 5833 5836 5840 5843 5847 5850 5853 5857
5811 5810 5809 5809 5809 5809 5809 5809 5810 5810 5810 5810 5811 5811 5811 5811 5810 5810 5809 5808 5808 5807 5807 5807 5807 5807 5808 5809 5810 5812 5813 5815 5818 5820 5823 5826 5829 5832 5836 5840 5843 5847 5850
5804 5803 5802 5802 5802 5802 5802 5802 5802 5803 5803 5803 5804 5805 5805 5805 5805 5805 5804 5803 5803 5802 5802 5801 5801 5802 5802 5803 5804 5806 5807 5809 5811 5813 5816 5818 5821 5825 5828 5832 5836 5839 5843
5796 5795 5794 5794 5793 5793 5794 5794 5794 5795 5795 5796 5797 5797 5798 5799 5799 5800 5799 5797 5797 5797 5796 5796 5796 5796 5796 5797 5798 5799 5800 5802 5804 5806 5808 5811 5814 5817 5821 5824 5828 5832 5835
5787 5786 5785 5785 5785 5785 5785 5785 5786 5786 5787 5788 5789 5789 5790 5791 5792 5793 5793 5792 5791 5790 5790 5790 5790 5790 5790 5791 5792 5792 5794 5795 5797 5799 5801 5803 5806 5809 5813 5816 5820 5824 5828
5776 5775 5775 5775 5775 5775 5775 5776 5776 5777 5778 5779 5780 5781 5782 5782 5783 5784 5785 5785 5785 5784 5784 5784 5784 5784 5784 5785 5785 5786 5787 5788 5789 5791 5793 5795 5798 5801 5805 5809 5813 5817 5820
5764 5763 5763 5763 5763 5764 5764 5765 5766 5767 5768 5769 5770 5771 5772 5773 5774 5776 5777 5778 5778 5778 5778 5777 5777 5777 5777 5778 5778 5779 5780 5781 5782 5783 5785 5787 5790 5793 5797 5801 5805 5809 5813
5750 5749 5749 5749 5750 5751 5751 5752 5754 5755 5757 5758 5759 5760 5762 5764 5765 5766 5768 5769 5771 5771 5771 5770 5770 5770 5770 5771 5771 5772 5773 5773 5774 5776 5778 5780 5782 5785 5789 5793 5797 5801 5805
5733 5733 5734 5734 5735 5737 5738 5739 5741 5742 5744 5746 5748 5750 5752 5754 5755 5757 5758 5760 5761 5763 5764 5763 5762 5762 5762 5763 5764 5764 5765 5766 5767 5768 5770 5772 5774 5777 5781 5785 5789 5793 5797
5714 5715 5716 5717 5718 5720 5722 5724 5726 5728 5731 5733 5736 5738 5740 5742 5745 5747 5748 5750 5751 5753 5755 5755 5755 5755 5754 5755 5756 5757 5757 5758 5760 5761 5762 5765 5767 5770 5773 5777 5781 5785 5789
5695 5695 5696 5698 5700 5702 5704 5707 5710 5713 5716 5720 5722 5725 5728 5731 5733 5736 5738 5740 5742 5743 5745 5747 5747 5747 5747 5747 5748 5749 5750 5751 5752 5753 5755 5757 5760 5762 5766 5769 5773 5777 5781
5673 5674 5675 5677 5679 5682 5685 5689 5692 5696 5700 5704 5708 5712 5715 5718 5722 5725 5727 5730 5732 5733 5735 5737 5738 5738 5739 5740 5740 5741 5742 5743 5744 5745 5748 5750 5752 5755 5758 5762 5766 5769 5773
5651 5652 5653 5656 5658 5661 5665 5669 5673 5677 5682 5687 5692 5697 5701 5705 5709 5713 5716 5719 5722 5724 5726 5728 5730 5730 5731 5732 5733 5733 5734 5735 5736 5738 5740 5743 5745 5748 5751 5755 5758 5762 5765
5629 5630 5632 5634 5636 5640 5644 5648 5653 5658 5663 5669 5675 5681 5686 5691 5696 5700 5704 5708 5711 5714 5716 5718 5720 5722 5723 5724 5725 5726 5726 5727 5729 5731 5733 5736 5739 5741 5744 5748 5751 5754 5757
5610 5610 5611 5613 5615 5618 5622 5626 5632 5638 5644 5650 5657 5664 5670 5677 5682 5687 5692 5696 5700 5704 5707 5709 5711 5713 5714 5715 5716 5718 5719 5720 5722 5725 5726 5729 5732 5735 5738 5741 5744 5747 5750
5595 5595 5595 5596 5597 5599 5602 5606 5611 5617 5624 5631 5639 5646 5654 5661 5668 5674 5680 5685 5689 5693 5697 5700 5702 5704 5706 5707 5709 5710 5712 5713 5715 5717 5720 5722 5725 5728 5731 5734 5737 5740 5743
5583 5583 5583 5583 5583 5584 5586 5589 5593 5598 5605 5613 5621 5629 5637 5646 5653 5661 5667 5673 5678 5683 5686 5690 5693 5696 5698 5699 5701 5703 5704 5706 5708 5711 5713 5716 5719 5722 5725 5728 5730 5733 5736
5571 5572 5572 5572 5572 5573 5574 5576 5578 5583 5589 5596 5604 5613 5622 5631 5639 5647 5654 5661 5667 5672 5676 5681 5684 5687 5689 5691 5693 5695 5697 5699 5701 5704 5707 5709 5712 5715 5718 5721 5723 5726 5729
5560 5561 5562 5562 5562 5563 5563 5565 5567 5570 5576 5582 5590 5598 5607 5616 5625 5633 5642 5649 5656 5662 5667 5671 5675 5678 5681 5683 5686 5688 5690 5693 5695 5698 5701 5703 5706 5709 5711 5714 5717 5719 5723